Location: Dead Woman Crossing
(43.5369°N, 106.3228°W)
Time: 10:13:26
(UTC+00:00)

ITUPSAT 1 - Pass Details

Date: 30 June 2022
Orbit: 701 x 711 km, 98.6° (Epoch: 13 August)

Event Time Altitude Azimuth Distance (km) Brightness Sun altitude
Rises 05:17:19 0° 353° (N) 3,109 ? -18.5°
Reaches altitude 10° 05:21:23 10° 318° (NW) 2,187 ? -18.9°
Maximum altitude 05:22:38 11° 303° (WNW) 2,119 ? -19.0°
Drops below altitude 10° 05:23:54 10° 288° (WNW) 2,185 ? -19.1°
Sets 05:27:57 0° 253° (WSW) 3,100 ? -19.4°
